LUCH (OLYMP-K 1)

Last updated on Thu Nov 06 2025 00:02:48 GMT+0000 (Coordinated Universal Time)

1 40258U 14058A 25309.40903806 -.00000229 00000+0 00000+0 0 9998 2 40258 1.3099 85.3219 0004142 135.4654 305.8239 0.99120079 38750
UTC large
Height (km)
Speed (km/s)
/
Latitude / Longitude
Inclination (degrees)
Orbital Period (minutes)
Azimuth
Elevation
Range (km)
Doppler Factor

Next 0 passes for location: London (51.5072 / 0.1276)

Sorry there are no passes over London.